Time,TemperatureF,DewpointF,PressureIn,WindDirection,WindDirectionDegrees,WindSpeedMPH,WindSpeedGustMPH,Humidity,HourlyPrecipIn,Conditions,Clouds,dailyrainin,SoftwareType,DateUTC
2013-03-18 00:03:00,34.3,32.5,29.79,NNE,31,8.1,8.1,93,0.04,RA,RA,0.12,WeatherDisplay:10.36,2013-03-18 05:03:00,
2013-03-18 00:08:00,34.3,32.5,29.79,ESE,110,5.8,5.8,93,0.04,,,0.12,WeatherDisplay:10.36,2013-03-18 05:08:00,
2013-03-18 00:13:00,34.3,32.5,29.79,NE,35,5.8,5.8,93,0.04,,,0.12,WeatherDisplay:10.36,2013-03-18 05:13:00,
2013-03-18 00:18:00,34.5,32.7,29.79,NNE,31,6.9,6.9,93,0.04,,,0.12,WeatherDisplay:10.36,2013-03-18 05:18:00,
2013-03-18 00:23:00,34.5,32.7,29.79,NE,38,10.1,10.1,93,0.04,,,0.12,WeatherDisplay:10.36,2013-03-18 05:23:00,
2013-03-18 00:28:00,34.5,32.7,29.79,NNE,32,6.9,6.9,93,0.04,,,0.12,WeatherDisplay:10.36,2013-03-18 05:28:00,
2013-03-18 00:33:00,34.5,32.7,29.76,ENE,78,7.8,7.8,93,0.04,,,0.12,WeatherDisplay:10.36,2013-03-18 05:33:00,
2013-03-18 00:38:00,34.5,32.7,29.76,ENE,64,9.6,9.6,93,0.04,,,0.12,WeatherDisplay:10.36,2013-03-18 05:38:00,
2013-03-18 00:43:00,34.5,32.7,29.76,NE,54,9.2,9.2,93,0.04,,,0.12,WeatherDisplay:10.36,2013-03-18 05:43:00,
2013-03-18 00:48:00,34.5,32.7,29.76,NNE,26,9.6,9.6,93,0.04,,,0.12,WeatherDisplay:10.36,2013-03-18 05:48:00,
2013-03-18 00:53:00,34.5,32.7,29.76,NNE,26,6.9,6.9,93,0.04,,,0.12,WeatherDisplay:10.36,2013-03-18 05:53:00,
2013-03-18 00:58:00,34.5,32.7,29.76,NE,44,8.1,8.1,93,0.00,,,0.12,WeatherDisplay:10.36,2013-03-18 05:58:00,
2013-03-18 01:03:00,34.5,32.7,29.76,NE,37,7.4,7.4,93,0.00,,,0.12,WeatherDisplay:10.36,2013-03-18 06:03:00,
2013-03-18 01:08:00,34.5,32.7,29.76,East,93,10.5,10.5,93,0.00,,,0.00,WeatherDisplay:10.36,2013-03-18 06:08:00,
2013-03-18 01:13:00,34.5,32.7,29.76,NNE,32,7.8,7.8,93,0.00,,,0.00,WeatherDisplay:10.36,2013-03-18 06:13:00,
2013-03-18 01:18:00,34.5,32.7,29.76,SSW,192,6.7,6.7,93,0.00,,,0.00,WeatherDisplay:10.36,2013-03-18 06:18:00,
2013-03-18 01:23:00,34.5,32.7,29.76,East,91,6.9,6.9,93,0.00,,,0.00,WeatherDisplay:10.36,2013-03-18 06:23:00,
2013-03-18 01:28:00,34.5,32.7,29.76,NNE,33,6.9,6.9,93,0.00,,,0.00,WeatherDisplay:10.36,2013-03-18 06:28:00,
2013-03-18 01:33:00,34.5,32.7,29.73,ENE,73,9.2,9.2,93,0.00,,,0.00,WeatherDisplay:10.36,2013-03-18 06:33:00,
2013-03-18 01:38:00,34.5,32.7,29.73,NE,35,8.1,8.1,93,0.00,,,0.00,WeatherDisplay:10.36,2013-03-18 06:38:00,
2013-03-18 01:43:00,34.5,32.7,29.73,NE,43,7.4,7.4,93,0.00,,,0.00,WeatherDisplay:10.36,2013-03-18 06:43:00,
2013-03-18 01:48:00,34.5,32.7,29.73,NNE,26,5.8,5.8,93,0.00,,,0.00,WeatherDisplay:10.36,2013-03-18 06:48:00,
2013-03-18 01:53:00,34.5,32.7,29.73,ESE,107,9.2,9.2,93,0.00,,,0.00,WeatherDisplay:10.36,2013-03-18 06:53:00,
2013-03-18 01:58:00,34.5,32.7,29.73,East,80,8.1,8.1,93,0.00,,,0.00,WeatherDisplay:10.36,2013-03-18 06:58:00,
2013-03-18 02:03:00,34.5,32.7,29.76,NE,38,4.9,4.9,93,0.00,,,0.00,WeatherDisplay:10.36,2013-03-18 07:03:00,
2013-03-18 02:08:00,34.5,32.7,29.76,East,83,6.9,6.9,93,0.00,,,0.00,WeatherDisplay:10.36,2013-03-18 07:08:00,
2013-03-18 02:13:00,34.5,32.7,29.76,NNE,26,4.9,4.9,93,0.00,,,0.00,WeatherDisplay:10.36,2013-03-18 07:13:00,
2013-03-18 02:18:00,34.5,32.7,29.73,NNE,26,3.6,3.6,93,0.00,,,0.00,WeatherDisplay:10.36,2013-03-18 07:18:00,
2013-03-18 02:23:00,34.5,32.7,29.73,NNE,26,5.4,5.4,93,0.00,,,0.00,WeatherDisplay:10.36,2013-03-18 07:23:00,
2013-03-18 02:28:00,34.5,32.7,29.73,NE,52,6.9,6.9,93,0.00,,,0.00,WeatherDisplay:10.36,2013-03-18 07:28:00,
2013-03-18 02:33:00,34.5,32.7,29.73,NNE,31,4.9,0.0,93,0.00,,,0.00,WeatherDisplay:10.36,2013-03-18 07:33:00,
2013-03-18 02:39:00,34.5,32.7,29.73,NNE,26,4.6,4.6,93,0.00,,,0.00,WeatherDisplay:10.36,2013-03-18 07:39:00,
2013-03-18 02:44:00,34.5,32.7,29.73,NNE,26,5.4,5.4,93,0.00,,,0.00,WeatherDisplay:10.36,2013-03-18 07:44:00,
2013-03-18 02:49:00,34.5,32.7,29.73,NNE,29,5.8,5.8,93,0.00,,,0.00,WeatherDisplay:10.36,2013-03-18 07:49:00,
2013-03-18 02:54:00,34.5,32.7,29.73,NNE,27,0.0,0.0,93,0.00,,,0.00,WeatherDisplay:10.36,2013-03-18 07:54:00,
2013-03-18 02:59:00,34.7,32.9,29.73,NNE,25,3.6,0.0,93,0.00,,,0.00,WeatherDisplay:10.36,2013-03-18 07:59:00,
2013-03-18 03:04:00,34.5,32.7,29.73,NE,47,3.5,3.5,93,0.00,,,0.00,WeatherDisplay:10.36,2013-03-18 08:04:00,
2013-03-18 03:09:00,34.5,32.7,29.73,NNE,30,4.9,4.9,93,0.00,,,0.00,WeatherDisplay:10.36,2013-03-18 08:09:00,
2013-03-18 03:14:00,34.7,32.9,29.73,North,351,4.6,4.6,93,0.00,,,0.00,WeatherDisplay:10.36,2013-03-18 08:14:00,
2013-03-18 03:19:00,34.5,32.7,30.53,North,351,3.6,0.0,93,0.00,,,0.00,WeatherDisplay:10.36,2013-03-18 08:19:00,
2013-03-18 03:25:00,34.7,32.9,30.53,NNE,27,5.4,5.4,93,0.00,,,0.00,WeatherDisplay:10.36,2013-03-18 08:25:00,
2013-03-18 03:30:00,34.7,32.9,30.53,North,351,3.6,0.0,93,0.00,,,0.00,WeatherDisplay:10.36,2013-03-18 08:30:00,
2013-03-18 03:35:00,34.7,32.9,30.53,NE,44,0.0,0.0,93,0.00,,,0.00,WeatherDisplay:10.36,2013-03-18 08:35:00,
2013-03-18 03:41:00,34.7,32.9,30.53,NNE,28,0.0,0.0,93,0.00,,,0.00,WeatherDisplay:10.36,2013-03-18 08:41:00,
2013-03-18 03:47:00,34.7,32.9,29.73,NNE,26,0.0,3.1,93,0.00,,,0.00,WeatherDisplay:10.36,2013-03-18 08:47:00,
2013-03-18 03:52:00,34.7,32.9,29.73,NNE,26,4.6,4.6,93,0.00,,,0.00,WeatherDisplay:10.36,2013-03-18 08:52:00,
2013-03-18 03:58:00,34.7,32.9,29.73,NNE,26,0.0,0.0,93,0.00,,,0.00,WeatherDisplay:10.36,2013-03-18 08:58:00,
2013-03-18 04:03:00,34.9,33.1,29.73,NNE,30,0.0,0.0,93,0.00,,,0.00,WeatherDisplay:10.36,2013-03-18 09:03:00,
2013-03-18 04:08:00,34.9,33.1,29.73,North,351,3.5,0.0,93,0.00,,,0.00,WeatherDisplay:10.36,2013-03-18 09:08:00,
2013-03-18 04:13:00,34.9,33.1,29.73,North,351,0.0,0.0,93,0.00,,,0.00,WeatherDisplay:10.36,2013-03-18 09:13:00,
2013-03-18 04:18:00,34.9,33.1,29.73,North,351,0.0,0.0,93,0.00,,,0.00,WeatherDisplay:10.36,2013-03-18 09:18:00,
2013-03-18 04:23:00,34.9,33.1,29.73,North,351,3.5,3.5,93,0.00,,,0.00,WeatherDisplay:10.36,2013-03-18 09:23:00,
2013-03-18 04:28:00,34.9,33.1,29.73,North,351,0.0,0.0,93,0.00,,,0.00,WeatherDisplay:10.36,2013-03-18 09:28:00,
2013-03-18 04:33:00,34.9,33.1,30.53,North,351,0.0,0.0,93,0.00,,,0.00,WeatherDisplay:10.36,2013-03-18 09:33:00,
2013-03-18 04:38:00,34.9,33.1,30.53,ESE,121,3.6,0.0,93,0.00,,,0.00,WeatherDisplay:10.36,2013-03-18 09:38:00,
2013-03-18 04:43:00,34.9,33.1,30.53,NE,36,0.0,0.0,93,0.00,,,0.00,WeatherDisplay:10.36,2013-03-18 09:43:00,
2013-03-18 04:48:00,34.9,33.1,29.70,NE,36,0.0,0.0,93,0.00,,,0.04,WeatherDisplay:10.36,2013-03-18 09:48:00,
2013-03-18 04:53:00,35.1,33.2,29.70,NE,49,0.0,0.0,93,0.04,RA,RA,0.04,WeatherDisplay:10.36,2013-03-18 09:53:00,
2013-03-18 04:58:00,35.1,33.2,29.70,NE,45,0.0,0.0,93,0.04,RA,RA,0.04,WeatherDisplay:10.36,2013-03-18 09:58:00,
2013-03-18 05:03:00,35.1,33.2,29.70,NNE,27,0.0,0.0,93,0.04,,,0.04,WeatherDisplay:10.36,2013-03-18 10:03:00,
2013-03-18 05:09:00,35.2,33.4,29.70,NNE,26,0.0,0.0,93,0.04,,,0.04,WeatherDisplay:10.36,2013-03-18 10:09:00,
2013-03-18 05:14:00,35.6,34.0,29.70,NNE,26,0.0,0.0,94,0.04,,,0.04,WeatherDisplay:10.36,2013-03-18 10:14:00,
2013-03-18 05:19:00,36.1,34.6,29.70,NNE,26,0.0,0.0,94,0.04,,,0.04,WeatherDisplay:10.36,2013-03-18 10:19:00,
2013-03-18 05:24:00,36.0,34.4,29.70,NNE,27,0.0,0.0,94,0.04,,,0.04,WeatherDisplay:10.36,2013-03-18 10:24:00,
2013-03-18 05:29:00,36.0,34.4,29.70,NNE,26,0.0,0.0,94,0.04,,,0.04,WeatherDisplay:10.36,2013-03-18 10:29:00,
2013-03-18 05:34:00,36.0,34.4,29.70,NNE,26,0.0,0.0,94,0.04,,,0.04,WeatherDisplay:10.36,2013-03-18 10:34:00,
2013-03-18 05:39:00,35.8,34.0,29.70,NNE,26,4.0,4.0,93,0.04,,,0.04,WeatherDisplay:10.36,2013-03-18 10:39:00,
2013-03-18 05:44:00,35.6,33.8,29.70,NNE,27,0.0,0.0,93,0.04,,,0.04,WeatherDisplay:10.36,2013-03-18 10:44:00,
2013-03-18 05:49:00,35.4,33.6,29.67,NNE,26,0.0,0.0,93,0.00,,,0.04,WeatherDisplay:10.36,2013-03-18 10:49:00,
2013-03-18 05:54:00,35.4,33.6,29.67,NNE,26,0.0,0.0,93,0.00,,,0.04,WeatherDisplay:10.36,2013-03-18 10:54:00,
2013-03-18 06:00:00,35.2,33.4,29.67,ENE,75,0.0,0.0,93,0.00,,,0.04,WeatherDisplay:10.36,2013-03-18 11:00:00,
2013-03-18 06:05:00,35.1,33.2,29.67,NNE,26,0.0,0.0,93,0.00,,,0.04,WeatherDisplay:10.36,2013-03-18 11:05:00,
2013-03-18 06:10:00,35.1,33.2,29.67,NNE,27,0.0,0.0,93,0.00,,,0.04,WeatherDisplay:10.36,2013-03-18 11:10:00,
2013-03-18 06:23:00,35.2,33.4,29.70,NNE,28,0.0,0.0,93,0.00,,,0.04,WeatherDisplay:10.36,2013-03-18 11:23:00,
2013-03-18 06:28:00,35.2,33.4,29.70,NNE,27,0.0,0.0,93,0.00,,,0.04,WeatherDisplay:10.36,2013-03-18 11:28:00,
2013-03-18 06:33:00,35.2,33.4,29.70,NNE,27,0.0,0.0,93,0.00,,,0.04,WeatherDisplay:10.36,2013-03-18 11:33:00,
2013-03-18 06:38:00,35.4,33.6,29.70,NNE,28,0.0,0.0,93,0.00,,,0.04,WeatherDisplay:10.36,2013-03-18 11:38:00,
2013-03-18 06:43:00,35.4,33.9,29.70,NNE,31,0.0,0.0,94,0.00,,,0.04,WeatherDisplay:10.36,2013-03-18 11:43:00,
2013-03-18 06:48:00,35.4,33.9,29.70,NNE,28,0.0,0.0,94,0.00,,,0.04,WeatherDisplay:10.36,2013-03-18 11:48:00,
2013-03-18 06:53:00,35.4,33.9,29.70,ENE,76,0.0,0.0,94,0.00,,,0.04,WeatherDisplay:10.36,2013-03-18 11:53:00,
2013-03-18 06:58:00,35.6,34.0,29.70,South,181,0.0,0.0,94,0.00,,,0.04,WeatherDisplay:10.36,2013-03-18 11:58:00,
2013-03-18 07:03:00,35.6,34.0,29.73,NE,51,0.0,0.0,94,0.00,,,0.04,WeatherDisplay:10.36,2013-03-18 12:03:00,
2013-03-18 07:08:00,35.6,34.0,29.73,ENE,62,0.0,0.0,94,0.00,,,0.04,WeatherDisplay:10.36,2013-03-18 12:08:00,
2013-03-18 07:13:00,35.6,34.0,29.73,NE,48,0.0,0.0,94,0.00,,,0.04,WeatherDisplay:10.36,2013-03-18 12:13:00,
2013-03-18 07:18:00,35.6,34.0,29.70,NE,46,0.0,0.0,94,0.00,,,0.04,WeatherDisplay:10.36,2013-03-18 12:18:00,
2013-03-18 07:23:00,35.6,34.0,29.70,NE,56,0.0,0.0,94,0.00,,,0.04,WeatherDisplay:10.36,2013-03-18 12:23:00,
2013-03-18 07:28:00,35.8,34.2,29.70,NE,52,0.0,0.0,94,0.00,,,0.04,WeatherDisplay:10.36,2013-03-18 12:28:00,
2013-03-18 07:33:00,35.8,34.2,29.73,NE,55,0.0,0.0,94,0.00,,,0.04,WeatherDisplay:10.36,2013-03-18 12:33:00,
2013-03-18 07:38:00,35.8,34.2,29.73,NE,46,0.0,0.0,94,0.00,,,0.04,WeatherDisplay:10.36,2013-03-18 12:38:00,
2013-03-18 07:43:00,35.8,34.2,29.73,NE,55,0.0,0.0,94,0.00,,,0.04,WeatherDisplay:10.36,2013-03-18 12:43:00,
2013-03-18 07:48:00,35.8,34.2,29.73,NE,54,3.5,3.5,94,0.00,,,0.04,WeatherDisplay:10.36,2013-03-18 12:48:00,
2013-03-18 07:53:00,35.8,34.2,29.73,ENE,62,0.0,0.0,94,0.00,,,0.04,WeatherDisplay:10.36,2013-03-18 12:53:00,
2013-03-18 07:58:00,36.0,34.4,29.73,ENE,64,4.0,4.0,94,0.00,,,0.04,WeatherDisplay:10.36,2013-03-18 12:58:00,
2013-03-18 08:03:00,36.0,34.4,29.73,NE,46,4.6,4.6,94,0.00,,,0.04,WeatherDisplay:10.36,2013-03-18 13:03:00,
2013-03-18 08:08:00,36.0,34.4,29.73,NE,44,3.5,3.5,94,0.00,,,0.04,WeatherDisplay:10.36,2013-03-18 13:08:00,
2013-03-18 08:13:00,36.0,34.4,29.73,NE,44,0.0,0.0,94,0.00,,,0.04,WeatherDisplay:10.36,2013-03-18 13:13:00,
2013-03-18 08:18:00,36.1,34.6,29.73,NE,50,0.0,0.0,94,0.00,,,0.04,WeatherDisplay:10.36,2013-03-18 13:18:00,
2013-03-18 08:23:00,36.1,34.6,29.73,NE,46,0.0,0.0,94,0.00,,,0.04,WeatherDisplay:10.36,2013-03-18 13:23:00,
2013-03-18 08:28:00,36.1,34.6,29.73,ENE,72,0.0,0.0,94,0.00,,,0.04,WeatherDisplay:10.36,2013-03-18 13:28:00,
2013-03-18 08:33:00,36.1,34.6,29.70,NE,48,3.5,0.0,94,0.00,,,0.04,WeatherDisplay:10.36,2013-03-18 13:33:00,
2013-03-18 08:38:00,36.3,34.8,29.70,NE,49,0.0,0.0,94,0.00,,,0.04,WeatherDisplay:10.36,2013-03-18 13:38:00,
2013-03-18 08:44:00,36.5,34.9,29.70,ENE,63,0.0,0.0,94,0.00,,,0.04,WeatherDisplay:10.36,2013-03-18 13:44:00,
2013-03-18 08:49:00,36.7,35.1,29.70,NE,50,3.6,3.6,94,0.00,,,0.04,WeatherDisplay:10.36,2013-03-18 13:49:00,
2013-03-18 08:54:00,36.9,35.3,29.70,ENE,64,0.0,0.0,94,0.00,,,0.04,WeatherDisplay:10.36,2013-03-18 13:54:00,
2013-03-18 08:59:00,36.9,35.3,29.70,NE,53,3.6,3.6,94,0.00,,,0.04,WeatherDisplay:10.36,2013-03-18 13:59:00,
2013-03-18 09:04:00,36.9,35.3,29.73,ENE,58,5.8,5.8,94,0.00,,,0.04,WeatherDisplay:10.36,2013-03-18 14:04:00,
2013-03-18 09:09:00,36.9,35.3,29.73,ENE,69,2.3,2.7,94,0.00,,,0.04,WeatherDisplay:10.36,2013-03-18 14:09:00,
2013-03-18 09:14:00,37.0,35.5,29.73,SW,234,6.7,6.7,94,0.00,,,0.04,WeatherDisplay:10.36,2013-03-18 14:14:00,
2013-03-18 09:19:00,37.2,35.7,29.70,East,82,5.8,5.8,94,0.00,,,0.04,WeatherDisplay:10.36,2013-03-18 14:19:00,
2013-03-18 09:24:00,37.4,35.8,29.70,ENE,69,5.8,5.8,94,0.00,,,0.04,WeatherDisplay:10.36,2013-03-18 14:24:00,
2013-03-18 09:29:00,37.4,35.8,29.70,ENE,57,5.8,5.8,94,0.00,,,0.04,WeatherDisplay:10.36,2013-03-18 14:29:00,
2013-03-18 09:34:00,37.4,35.8,29.73,ENE,62,3.6,3.6,94,0.00,,,0.04,WeatherDisplay:10.36,2013-03-18 14:34:00,
2013-03-18 09:39:00,37.4,35.8,29.73,NE,54,5.8,5.8,94,0.00,,,0.04,WeatherDisplay:10.36,2013-03-18 14:39:00,
2013-03-18 09:44:00,37.6,36.0,29.73,ENE,74,4.6,4.6,94,0.00,,,0.04,WeatherDisplay:10.36,2013-03-18 14:44:00,
2013-03-18 09:49:00,37.8,36.2,29.73,East,97,5.8,5.8,94,0.00,,,0.04,WeatherDisplay:10.36,2013-03-18 14:49:00,
2013-03-18 09:55:00,37.9,36.4,29.73,ESE,112,4.6,4.6,94,0.00,,,0.04,WeatherDisplay:10.36,2013-03-18 14:55:00,
2013-03-18 10:00:00,37.9,36.4,29.73,ENE,74,6.3,6.3,94,0.00,,,0.04,WeatherDisplay:10.36,2013-03-18 15:00:00,
2013-03-18 10:05:00,37.9,36.4,29.73,ENE,61,6.3,6.3,94,0.00,,,0.04,WeatherDisplay:10.36,2013-03-18 15:05:00,
2013-03-18 10:10:00,37.9,36.4,29.73,SE,135,8.1,8.1,94,0.00,,,0.04,WeatherDisplay:10.36,2013-03-18 15:10:00,
2013-03-18 10:15:00,37.9,36.4,29.73,NE,52,7.4,7.4,94,0.00,,,0.04,WeatherDisplay:10.36,2013-03-18 15:15:00,
2013-03-18 10:20:00,37.9,36.4,29.73,NE,53,6.3,6.3,94,0.00,,,0.04,WeatherDisplay:10.36,2013-03-18 15:20:00,
2013-03-18 10:25:00,38.1,36.5,29.73,NE,52,6.9,6.9,94,0.00,,,0.04,WeatherDisplay:10.36,2013-03-18 15:25:00,
2013-03-18 10:30:00,37.9,36.4,29.73,East,97,4.6,4.6,94,0.00,,,0.04,WeatherDisplay:10.36,2013-03-18 15:30:00,
2013-03-18 10:35:00,37.9,36.4,29.73,ENE,71,5.4,5.4,94,0.00,,,0.04,WeatherDisplay:10.36,2013-03-18 15:35:00,
2013-03-18 10:40:00,38.1,36.5,29.73,ENE,64,5.8,5.8,94,0.00,,,0.04,WeatherDisplay:10.36,2013-03-18 15:40:00,
2013-03-18 10:45:00,38.3,36.7,29.73,East,91,6.9,6.9,94,0.00,,,0.04,WeatherDisplay:10.36,2013-03-18 15:45:00,
2013-03-18 10:50:00,38.5,36.9,29.76,ENE,76,9.2,9.2,94,0.00,,,0.04,WeatherDisplay:10.36,2013-03-18 15:50:00,
2013-03-18 10:55:00,38.5,36.9,29.76,NE,53,7.4,7.4,94,0.00,,,0.04,WeatherDisplay:10.36,2013-03-18 15:55:00,
2013-03-18 11:00:00,38.7,37.1,29.76,ENE,65,4.0,4.0,94,0.00,,,0.04,WeatherDisplay:10.36,2013-03-18 16:00:00,
2013-03-18 11:05:00,38.8,37.3,29.73,NE,55,4.5,4.5,94,0.00,,,0.04,WeatherDisplay:10.36,2013-03-18 16:05:00,
2013-03-18 11:10:00,39.2,37.6,29.73,East,82,5.8,5.8,94,0.00,,,0.04,WeatherDisplay:10.36,2013-03-18 16:10:00,
2013-03-18 11:15:00,39.6,38.0,29.73,ESE,110,9.2,9.2,94,0.00,,,0.04,WeatherDisplay:10.36,2013-03-18 16:15:00,
2013-03-18 11:20:00,39.9,38.3,29.73,ENE,75,6.7,6.7,94,0.00,,,0.04,WeatherDisplay:10.36,2013-03-18 16:20:00,
2013-03-18 11:25:00,40.3,38.7,29.73,NE,52,6.9,6.9,94,0.00,,,0.04,WeatherDisplay:10.36,2013-03-18 16:25:00,
2013-03-18 11:30:00,40.5,38.9,29.73,ENE,60,7.4,7.4,94,0.00,,,0.04,WeatherDisplay:10.36,2013-03-18 16:30:00,
2013-03-18 11:35:00,40.6,39.0,29.76,ENE,60,8.1,8.1,94,0.00,,,0.04,WeatherDisplay:10.36,2013-03-18 16:35:00,
2013-03-18 11:40:00,40.8,39.2,29.76,SE,135,6.9,6.9,94,0.00,,,0.04,WeatherDisplay:10.36,2013-03-18 16:40:00,
2013-03-18 11:46:00,40.8,39.2,29.76,ENE,59,5.4,5.4,94,0.00,,,0.04,WeatherDisplay:10.36,2013-03-18 16:46:00,
2013-03-18 11:51:00,41.0,39.4,29.73,East,81,7.8,7.8,94,0.00,,,0.04,WeatherDisplay:10.36,2013-03-18 16:51:00,
2013-03-18 11:56:00,41.2,39.6,29.73,ENE,64,5.4,5.4,94,0.00,,,0.04,WeatherDisplay:10.36,2013-03-18 16:56:00,
2013-03-18 12:01:00,41.0,39.4,29.73,ENE,75,6.9,6.9,94,0.00,,,0.04,WeatherDisplay:10.36,2013-03-18 17:01:00,
2013-03-18 12:07:00,41.0,39.4,29.76,NE,52,7.4,7.4,94,0.00,,,0.04,WeatherDisplay:10.36,2013-03-18 17:07:00,
2013-03-18 12:12:00,41.0,39.4,29.76,ENE,66,5.4,5.4,94,0.00,,,0.04,WeatherDisplay:10.36,2013-03-18 17:12:00,
2013-03-18 12:17:00,41.2,39.6,29.76,ENE,59,4.5,4.9,94,0.00,,,0.04,WeatherDisplay:10.36,2013-03-18 17:17:00,
2013-03-18 12:23:00,41.4,39.8,29.76,East,81,6.7,6.7,94,0.00,,,0.04,WeatherDisplay:10.36,2013-03-18 17:23:00,
2013-03-18 12:28:00,41.7,40.1,29.76,East,87,7.8,7.8,94,0.00,,,0.04,WeatherDisplay:10.36,2013-03-18 17:28:00,
2013-03-18 12:33:00,41.9,40.0,29.76,NE,51,9.2,9.2,93,0.00,,,0.04,WeatherDisplay:10.36,2013-03-18 17:33:00,
2013-03-18 12:38:00,42.3,40.4,29.76,ENE,71,7.4,7.4,93,0.00,,,0.04,WeatherDisplay:10.36,2013-03-18 17:38:00,
2013-03-18 12:43:00,42.4,40.6,29.76,ENE,57,9.2,9.2,93,0.00,,,0.04,WeatherDisplay:10.36,2013-03-18 17:43:00,
2013-03-18 12:48:00,42.4,40.3,29.76,SE,125,6.3,6.3,92,0.00,,,0.04,WeatherDisplay:10.36,2013-03-18 17:48:00,
2013-03-18 12:53:00,42.8,40.6,29.76,ENE,65,9.6,9.6,92,0.00,,,0.04,WeatherDisplay:10.36,2013-03-18 17:53:00,
2013-03-18 12:58:00,43.0,40.8,29.76,NE,54,8.1,8.1,92,0.00,,,0.04,WeatherDisplay:10.36,2013-03-18 17:58:00,
2013-03-18 13:03:00,43.0,40.5,29.76,ENE,72,7.8,7.8,91,0.00,,,0.04,WeatherDisplay:10.36,2013-03-18 18:03:00,
2013-03-18 13:08:00,43.0,40.2,29.76,ENE,63,11.2,11.2,90,0.00,,,0.04,WeatherDisplay:10.36,2013-03-18 18:08:00,
2013-03-18 13:13:00,42.8,39.8,29.76,East,98,5.8,5.8,89,0.00,,,0.04,WeatherDisplay:10.36,2013-03-18 18:13:00,
2013-03-18 13:18:00,43.0,39.7,29.76,ENE,61,10.1,10.1,88,0.00,,,0.04,WeatherDisplay:10.36,2013-03-18 18:18:00,
2013-03-18 13:23:00,43.0,39.4,29.76,ENE,67,8.1,8.1,87,0.00,,,0.04,WeatherDisplay:10.36,2013-03-18 18:23:00,
2013-03-18 13:28:00,43.3,39.4,29.76,East,93,6.9,6.9,86,0.00,,,0.04,WeatherDisplay:10.36,2013-03-18 18:28:00,
2013-03-18 13:33:00,44.1,39.8,29.76,ESE,113,6.9,6.9,85,0.00,,,0.04,WeatherDisplay:10.36,2013-03-18 18:33:00,
2013-03-18 13:38:00,44.4,39.9,29.76,East,87,6.9,6.9,84,0.00,,,0.04,WeatherDisplay:10.36,2013-03-18 18:38:00,
2013-03-18 13:43:00,44.8,39.9,29.76,NE,52,8.1,8.1,83,0.00,,,0.04,WeatherDisplay:10.36,2013-03-18 18:43:00,
2013-03-18 13:48:00,45.3,40.1,29.76,ENE,61,13.9,13.9,82,0.00,,,0.04,WeatherDisplay:10.36,2013-03-18 18:48:00,
2013-03-18 13:53:00,45.7,40.2,29.76,NE,50,9.6,9.6,81,0.00,,,0.04,WeatherDisplay:10.36,2013-03-18 18:53:00,
2013-03-18 13:58:00,45.9,39.4,29.76,ENE,59,11.2,11.2,78,0.00,,,0.04,WeatherDisplay:10.36,2013-03-18 18:58:00,
2013-03-18 14:03:00,46.0,38.9,29.76,SSW,195,9.2,9.2,76,0.00,,,0.04,WeatherDisplay:10.36,2013-03-18 19:03:00,
2013-03-18 14:08:00,46.8,39.3,29.76,ENE,66,9.2,9.2,75,0.00,,,0.04,WeatherDisplay:10.36,2013-03-18 19:08:00,
2013-03-18 14:13:00,47.1,38.6,29.76,ENE,70,11.5,11.5,72,0.00,,,0.04,WeatherDisplay:10.36,2013-03-18 19:13:00,
2013-03-18 14:18:00,47.3,37.3,29.76,NE,52,10.5,10.5,68,0.00,,,0.04,WeatherDisplay:10.36,2013-03-18 19:18:00,
2013-03-18 14:23:00,47.8,37.4,29.76,East,97,6.9,6.9,67,0.00,,,0.04,WeatherDisplay:10.36,2013-03-18 19:23:00,
2013-03-18 14:28:00,48.4,36.4,29.76,ENE,73,10.1,10.1,63,0.00,,,0.04,WeatherDisplay:10.36,2013-03-18 19:28:00,
2013-03-18 14:33:00,48.7,34.2,29.76,ENE,64,10.4,10.4,57,0.00,,,0.04,WeatherDisplay:10.36,2013-03-18 19:33:00,
2013-03-18 14:38:00,48.6,32.2,29.76,NE,47,9.2,9.2,53,0.00,,,0.04,WeatherDisplay:10.36,2013-03-18 19:38:00,
2013-03-18 14:43:00,48.4,31.1,29.76,NE,52,10.5,10.5,51,0.00,,,0.04,WeatherDisplay:10.36,2013-03-18 19:43:00,
2013-03-18 14:48:00,48.4,30.1,29.76,ENE,64,11.6,11.6,49,0.00,,,0.04,WeatherDisplay:10.36,2013-03-18 19:48:00,
2013-03-18 14:53:00,48.4,29.1,29.76,ESE,119,12.7,12.7,47,0.00,,,0.04,WeatherDisplay:10.36,2013-03-18 19:53:00,
2013-03-18 14:58:00,48.4,28.5,29.76,NE,56,5.8,5.8,46,0.00,,,0.04,WeatherDisplay:10.36,2013-03-18 19:58:00,
2013-03-18 15:03:00,48.6,29.2,29.73,NE,52,8.1,8.1,47,0.00,,,0.04,WeatherDisplay:10.36,2013-03-18 20:03:00,
2013-03-18 15:08:00,48.7,28.9,29.73,NE,54,12.7,12.7,46,0.00,,,0.04,WeatherDisplay:10.36,2013-03-18 20:08:00,
2013-03-18 15:13:00,48.7,27.8,29.73,ENE,72,9.2,9.2,44,0.00,,,0.04,WeatherDisplay:10.36,2013-03-18 20:13:00,
2013-03-18 15:18:00,48.7,27.8,29.76,NE,54,9.2,9.2,44,0.00,,,0.04,WeatherDisplay:10.36,2013-03-18 20:18:00,
2013-03-18 15:23:00,49.3,26.5,29.76,SSE,150,10.4,10.4,41,0.00,,,0.04,WeatherDisplay:10.36,2013-03-18 20:23:00,
2013-03-18 15:28:00,49.6,25.7,29.76,NE,50,13.8,13.8,39,0.00,,,0.04,WeatherDisplay:10.36,2013-03-18 20:28:00,
2013-03-18 15:33:00,50.0,25.4,29.76,ENE,59,9.2,9.2,38,0.00,,,0.04,WeatherDisplay:10.36,2013-03-18 20:33:00,
2013-03-18 15:39:00,50.0,24.7,29.76,ENE,69,9.2,9.2,37,0.00,,,0.04,WeatherDisplay:10.36,2013-03-18 20:39:00,
2013-03-18 15:44:00,50.2,24.2,29.76,ENE,60,10.4,10.4,36,0.00,,,0.04,WeatherDisplay:10.36,2013-03-18 20:44:00,
2013-03-18 15:49:00,50.2,24.2,29.76,ENE,73,10.1,10.1,36,0.00,,,0.04,WeatherDisplay:10.36,2013-03-18 20:49:00,
2013-03-18 15:54:00,50.2,24.2,29.76,East,90,11.5,11.5,36,0.00,,,0.04,WeatherDisplay:10.36,2013-03-18 20:54:00,
2013-03-18 15:59:00,50.0,22.0,29.76,East,85,12.7,12.7,33,0.00,,,0.04,WeatherDisplay:10.36,2013-03-18 20:59:00,
2013-03-18 16:04:00,49.8,21.1,29.76,ENE,73,10.5,10.5,32,0.00,,,0.04,WeatherDisplay:10.36,2013-03-18 21:04:00,
2013-03-18 16:09:00,49.8,21.8,29.76,NE,49,6.9,6.9,33,0.00,,,0.04,WeatherDisplay:10.36,2013-03-18 21:09:00,
2013-03-18 16:14:00,50.0,21.3,29.76,SE,133,11.6,11.6,32,0.00,,,0.04,WeatherDisplay:10.36,2013-03-18 21:14:00,
2013-03-18 16:19:00,50.0,21.3,29.73,NE,48,12.7,12.7,32,0.00,,,0.04,WeatherDisplay:10.36,2013-03-18 21:19:00,
2013-03-18 16:24:00,50.0,20.5,29.73,NE,52,10.1,10.1,31,0.00,,,0.04,WeatherDisplay:10.36,2013-03-18 21:24:00,
2013-03-18 16:29:00,50.0,19.7,29.73,East,90,11.5,11.5,30,0.00,,,0.04,WeatherDisplay:10.36,2013-03-18 21:29:00,
2013-03-18 16:34:00,50.0,20.5,29.73,NE,46,8.1,8.1,31,0.00,,,0.04,WeatherDisplay:10.36,2013-03-18 21:34:00,
2013-03-18 16:39:00,50.0,19.7,29.73,ESE,114,10.5,10.5,30,0.00,,,0.04,WeatherDisplay:10.36,2013-03-18 21:39:00,
2013-03-18 16:45:00,49.8,18.8,29.73,East,82,15.2,15.2,29,0.00,,,0.04,WeatherDisplay:10.36,2013-03-18 21:45:00,
2013-03-18 16:50:00,49.6,18.6,29.76,NE,48,9.2,9.2,29,0.00,,,0.04,WeatherDisplay:10.36,2013-03-18 21:50:00,
2013-03-18 16:55:00,49.5,18.5,29.76,SE,143,13.9,13.9,29,0.00,,,0.04,WeatherDisplay:10.36,2013-03-18 21:55:00,
2013-03-18 17:00:00,49.3,18.3,29.76,ENE,75,13.0,13.0,29,0.00,,,0.04,WeatherDisplay:10.36,2013-03-18 22:00:00,
2013-03-18 17:05:00,49.1,18.2,29.76,NE,51,11.5,11.5,29,0.00,,,0.04,WeatherDisplay:10.36,2013-03-18 22:05:00,
2013-03-18 17:10:00,49.1,18.2,29.76,ENE,61,10.4,10.4,29,0.00,,,0.04,WeatherDisplay:10.36,2013-03-18 22:10:00,
2013-03-18 17:15:00,48.9,18.8,29.76,ESE,116,11.5,11.5,30,0.00,,,0.04,WeatherDisplay:10.36,2013-03-18 22:15:00,
2013-03-18 17:20:00,48.7,18.6,29.76,ENE,67,9.2,9.2,30,0.00,,,0.04,WeatherDisplay:10.36,2013-03-18 22:20:00,
2013-03-18 17:25:00,48.7,18.6,29.76,East,91,10.4,10.4,30,0.00,,,0.04,WeatherDisplay:10.36,2013-03-18 22:25:00,
2013-03-18 17:30:00,48.6,18.5,29.76,ESE,123,11.6,11.6,30,0.00,,,0.04,WeatherDisplay:10.36,2013-03-18 22:30:00,
2013-03-18 17:35:00,48.4,19.1,29.79,NE,47,6.9,6.9,31,0.00,,,0.04,WeatherDisplay:10.36,2013-03-18 22:35:00,
2013-03-18 17:40:00,48.2,18.9,29.79,NE,47,6.9,6.9,31,0.00,,,0.04,WeatherDisplay:10.36,2013-03-18 22:40:00,
2013-03-18 17:45:00,48.2,18.9,29.79,NE,48,10.9,10.9,31,0.00,,,0.04,WeatherDisplay:10.36,2013-03-18 22:45:00,
2013-03-18 17:50:00,48.0,19.5,29.79,East,88,9.2,9.2,32,0.00,,,0.04,WeatherDisplay:10.36,2013-03-18 22:50:00,
2013-03-18 17:55:00,47.8,19.4,29.79,SE,138,9.2,9.2,32,0.00,,,0.04,WeatherDisplay:10.36,2013-03-18 22:55:00,
2013-03-18 18:00:00,47.7,19.2,29.79,ENE,78,6.9,6.9,32,0.00,,,0.04,WeatherDisplay:10.36,2013-03-18 23:00:00,
2013-03-18 18:05:00,47.7,19.2,29.79,East,89,10.5,10.5,32,0.00,,,0.04,WeatherDisplay:10.36,2013-03-18 23:05:00,
2013-03-18 18:10:00,47.3,18.9,29.79,ESE,105,10.4,10.4,32,0.00,,,0.04,WeatherDisplay:10.36,2013-03-18 23:10:00,
2013-03-18 18:15:00,47.3,18.9,29.79,East,79,9.2,9.2,32,0.00,,,0.04,WeatherDisplay:10.36,2013-03-18 23:15:00,
2013-03-18 18:20:00,46.9,19.3,29.79,ENE,63,6.9,6.9,33,0.00,,,0.04,WeatherDisplay:10.36,2013-03-18 23:20:00,
2013-03-18 18:25:00,46.8,19.1,29.79,ENE,75,6.9,6.9,33,0.00,,,0.04,WeatherDisplay:10.36,2013-03-18 23:25:00,
2013-03-18 18:30:00,46.6,19.7,29.79,NE,52,6.7,6.7,34,0.00,,,0.04,WeatherDisplay:10.36,2013-03-18 23:30:00,
2013-03-18 18:35:00,46.2,19.4,29.82,ENE,73,9.2,9.2,34,0.00,,,0.04,WeatherDisplay:10.36,2013-03-18 23:35:00,
2013-03-18 18:40:00,45.7,18.9,29.82,NE,53,9.2,9.2,34,0.00,,,0.04,WeatherDisplay:10.36,2013-03-18 23:40:00,
2013-03-18 18:45:00,45.3,18.6,29.82,NE,52,6.9,6.9,34,0.00,,,0.04,WeatherDisplay:10.36,2013-03-18 23:45:00,
2013-03-18 18:50:00,45.0,18.9,29.82,ENE,70,6.7,6.7,35,0.00,,,0.04,WeatherDisplay:10.36,2013-03-18 23:50:00,
2013-03-18 18:55:00,44.6,19.3,29.82,NE,53,4.0,4.0,36,0.00,,,0.04,WeatherDisplay:10.36,2013-03-18 23:55:00,
2013-03-18 19:00:00,44.1,19.4,29.82,ENE,62,6.9,6.9,37,0.00,,,0.04,WeatherDisplay:10.36,2013-03-19 00:00:00,
2013-03-18 19:05:00,43.7,19.1,29.82,SSE,152,4.9,4.9,37,0.00,,,0.04,WeatherDisplay:10.36,2013-03-19 00:05:00,
2013-03-18 19:10:00,43.5,19.6,29.82,NE,55,6.9,6.9,38,0.00,,,0.04,WeatherDisplay:10.36,2013-03-19 00:10:00,
2013-03-18 19:15:00,43.3,19.4,29.82,ENE,62,9.2,9.2,38,0.00,,,0.04,WeatherDisplay:10.36,2013-03-19 00:15:00,
2013-03-18 19:20:00,43.0,19.1,29.85,ESE,111,5.4,5.4,38,0.00,,,0.04,WeatherDisplay:10.36,2013-03-19 00:20:00,
2013-03-18 19:25:00,42.6,18.8,29.85,ENE,72,6.3,6.3,38,0.00,,,0.04,WeatherDisplay:10.36,2013-03-19 00:25:00,
2013-03-18 19:30:00,42.3,18.4,29.85,East,88,7.4,7.4,38,0.00,,,0.04,WeatherDisplay:10.36,2013-03-19 00:30:00,
2013-03-18 19:35:00,42.3,18.4,29.85,WSW,240,6.9,6.9,38,0.00,,,0.04,WeatherDisplay:10.36,2013-03-19 00:35:00,
2013-03-18 19:40:00,41.9,18.1,29.85,ENE,74,9.2,9.2,38,0.00,,,0.04,WeatherDisplay:10.36,2013-03-19 00:40:00,
2013-03-18 19:45:00,41.7,16.7,29.85,East,89,7.8,7.8,36,0.00,,,0.04,WeatherDisplay:10.36,2013-03-19 00:45:00,
2013-03-18 19:50:00,41.4,15.7,29.85,ENE,66,6.9,6.9,35,0.00,,,0.04,WeatherDisplay:10.36,2013-03-19 00:50:00,
2013-03-18 19:55:00,41.2,14.9,29.85,South,178,6.7,6.7,34,0.00,,,0.04,WeatherDisplay:10.36,2013-03-19 00:55:00,
2013-03-18 20:00:00,41.0,14.7,29.85,ESE,103,6.9,6.9,34,0.00,,,0.04,WeatherDisplay:10.36,2013-03-19 01:00:00,
2013-03-18 20:05:00,40.6,14.4,29.88,ENE,75,10.1,10.1,34,0.00,,,0.04,WeatherDisplay:10.36,2013-03-19 01:05:00,
2013-03-18 20:10:00,40.5,14.9,29.88,ESE,117,8.3,8.3,35,0.00,,,0.04,WeatherDisplay:10.36,2013-03-19 01:10:00,
2013-03-18 20:15:00,40.1,15.2,29.88,ENE,62,5.8,5.8,36,0.00,,,0.04,WeatherDisplay:10.36,2013-03-19 01:15:00,
2013-03-18 20:20:00,39.9,15.7,29.88,NE,53,10.1,10.1,37,0.00,,,0.04,WeatherDisplay:10.36,2013-03-19 01:20:00,
2013-03-18 20:25:00,39.7,16.2,29.88,East,86,4.6,4.6,38,0.00,,,0.04,WeatherDisplay:10.36,2013-03-19 01:25:00,
2013-03-18 20:30:00,39.4,16.4,29.88,NE,50,5.8,5.8,39,0.00,,,0.04,WeatherDisplay:10.36,2013-03-19 01:30:00,
2013-03-18 20:35:00,39.2,16.3,29.91,NE,46,6.9,6.9,39,0.00,,,0.04,WeatherDisplay:10.36,2013-03-19 01:35:00,
2013-03-18 20:40:00,38.8,16.0,29.91,ENE,69,5.8,5.8,39,0.00,,,0.04,WeatherDisplay:10.36,2013-03-19 01:40:00,
2013-03-18 20:45:00,38.7,15.8,29.91,ENE,70,6.3,6.3,39,0.00,,,0.04,WeatherDisplay:10.36,2013-03-19 01:45:00,
2013-03-18 20:50:00,38.3,15.5,29.91,SSE,150,5.8,5.8,39,0.00,,,0.04,WeatherDisplay:10.36,2013-03-19 01:50:00,
2013-03-18 20:55:00,38.1,15.9,29.91,ENE,73,7.4,7.4,40,0.00,,,0.04,WeatherDisplay:10.36,2013-03-19 01:55:00,
2013-03-18 21:00:00,37.8,15.6,29.91,East,101,9.2,9.2,40,0.00,,,0.04,WeatherDisplay:10.36,2013-03-19 02:00:00,
2013-03-18 21:05:00,37.4,14.7,29.91,NE,53,5.8,5.8,39,0.00,,,0.04,WeatherDisplay:10.36,2013-03-19 02:05:00,
2013-03-18 21:10:00,37.2,14.5,29.91,ENE,78,5.8,5.8,39,0.00,,,0.04,WeatherDisplay:10.36,2013-03-19 02:10:00,
2013-03-18 21:15:00,36.9,14.2,29.91,East,89,7.8,7.8,39,0.00,,,0.04,WeatherDisplay:10.36,2013-03-19 02:15:00,
2013-03-18 21:20:00,36.7,14.0,29.94,NE,47,3.5,0.0,39,0.00,,,0.04,WeatherDisplay:10.36,2013-03-19 02:20:00,
2013-03-18 21:25:00,36.5,14.4,29.94,ENE,60,5.8,5.8,40,0.00,,,0.04,WeatherDisplay:10.36,2013-03-19 02:25:00,
2013-03-18 21:30:00,36.3,14.3,29.94,ENE,61,8.3,8.3,40,0.00,,,0.04,WeatherDisplay:10.36,2013-03-19 02:30:00,
2013-03-18 21:35:00,36.1,14.1,29.94,East,82,9.2,9.2,40,0.00,,,0.04,WeatherDisplay:10.36,2013-03-19 02:35:00,
2013-03-18 21:40:00,35.8,13.8,29.94,NE,47,5.8,5.8,40,0.00,,,0.04,WeatherDisplay:10.36,2013-03-19 02:40:00,
2013-03-18 21:45:00,35.8,13.8,29.94,NE,50,7.8,7.8,40,0.00,,,0.04,WeatherDisplay:10.36,2013-03-19 02:45:00,
2013-03-18 21:50:00,35.6,13.6,29.94,East,82,6.9,6.9,40,0.00,,,0.04,WeatherDisplay:10.36,2013-03-19 02:50:00,
2013-03-18 21:55:00,35.4,13.5,29.94,NE,53,6.3,6.3,40,0.00,,,0.04,WeatherDisplay:10.36,2013-03-19 02:55:00,
2013-03-18 22:00:00,35.1,13.1,29.94,NE,55,6.7,6.7,40,0.00,,,0.04,WeatherDisplay:10.36,2013-03-19 03:00:00,
2013-03-18 22:05:00,35.1,13.1,29.97,South,175,6.9,6.9,40,0.00,,,0.04,WeatherDisplay:10.36,2013-03-19 03:05:00,
2013-03-18 22:10:00,34.9,13.0,29.97,East,84,6.9,6.9,40,0.00,,,0.04,WeatherDisplay:10.36,2013-03-19 03:10:00,
2013-03-18 22:15:00,34.5,13.2,29.97,SSE,167,7.8,7.8,41,0.00,,,0.04,WeatherDisplay:10.36,2013-03-19 03:15:00,
2013-03-18 22:20:00,34.5,13.2,29.97,NE,51,6.9,6.9,41,0.00,,,0.04,WeatherDisplay:10.36,2013-03-19 03:20:00,
2013-03-18 22:25:00,34.3,13.0,29.97,East,82,5.8,5.8,41,0.00,,,0.04,WeatherDisplay:10.36,2013-03-19 03:25:00,
2013-03-18 22:30:00,34.2,12.9,29.97,ENE,67,4.6,4.6,41,0.00,,,0.04,WeatherDisplay:10.36,2013-03-19 03:30:00,
2013-03-18 22:35:00,34.0,12.7,30.85,ENE,62,8.1,8.1,41,0.00,,,0.04,WeatherDisplay:10.36,2013-03-19 03:35:00,
2013-03-18 22:40:00,33.8,12.6,30.85,ENE,59,0.0,2.7,41,0.00,,,0.04,WeatherDisplay:10.36,2013-03-19 03:40:00,
2013-03-18 22:45:00,33.6,12.4,30.85,ESE,114,9.2,9.2,41,0.00,,,0.04,WeatherDisplay:10.36,2013-03-19 03:45:00,
2013-03-18 22:50:00,33.6,12.4,29.97,East,96,5.8,5.8,41,0.00,,,0.04,WeatherDisplay:10.36,2013-03-19 03:50:00,
2013-03-18 22:55:00,33.4,12.2,29.97,SE,146,6.7,6.7,41,0.00,,,0.04,WeatherDisplay:10.36,2013-03-19 03:55:00,
2013-03-18 23:00:00,33.3,12.1,29.97,ESE,117,5.8,5.8,41,0.00,,,0.04,WeatherDisplay:10.36,2013-03-19 04:00:00,
2013-03-18 23:01:00,33.3,12.1,30.00,NE,53,6.7,6.7,41,0.00,,,0.04,WeatherDisplay:10.36,2013-03-19 04:01:00,
2013-03-18 23:06:00,33.3,12.1,30.00,NE,56,4.0,4.0,41,0.00,,,0.04,WeatherDisplay:10.36,2013-03-19 04:06:00,
2013-03-18 23:12:00,33.1,11.9,30.00,ESE,106,7.4,7.4,41,0.00,,,0.04,WeatherDisplay:10.36,2013-03-19 04:12:00,
2013-03-18 23:17:00,32.9,11.7,30.00,NNE,26,10.1,10.1,41,0.00,,,0.04,WeatherDisplay:10.36,2013-03-19 04:17:00,
2013-03-18 23:22:00,32.9,12.3,30.00,ESE,114,6.7,6.7,42,0.00,,,0.04,WeatherDisplay:10.36,2013-03-19 04:22:00,
2013-03-18 23:27:00,32.7,12.1,30.00,ENE,73,6.3,6.3,42,0.00,,,0.04,WeatherDisplay:10.36,2013-03-19 04:27:00,
2013-03-18 23:32:00,32.7,12.1,30.00,NE,56,5.8,5.8,42,0.00,,,0.04,WeatherDisplay:10.36,2013-03-19 04:32:00,
2013-03-18 23:37:00,32.7,12.1,30.00,SSE,151,3.6,3.6,42,0.00,,,0.04,WeatherDisplay:10.36,2013-03-19 04:37:00,
2013-03-18 23:42:00,32.5,12.0,30.00,East,79,6.3,6.3,42,0.00,,,0.04,WeatherDisplay:10.36,2013-03-19 04:42:00,
2013-03-18 23:47:00,32.4,11.8,30.85,ENE,59,5.8,5.8,42,0.00,,,0.04,WeatherDisplay:10.36,2013-03-19 04:47:00,
2013-03-18 23:52:00,32.4,11.8,30.85,NE,51,9.2,9.2,42,0.00,,,0.04,WeatherDisplay:10.36,2013-03-19 04:52:00,
2013-03-18 23:57:00,32.2,11.6,30.85,ENE,62,5.4,5.4,42,0.00,,,0.04,WeatherDisplay:10.36,2013-03-19 04:57:00,